TimeMDT,TemperatureF,Dew PointF,Humidity,Sea Level PressureIn,VisibilityMPH,Wind Direction,Wind SpeedMPH,Gust SpeedMPH,PrecipitationIn,Events,Conditions,WindDirDegrees,DateUTC
12:54 AM,55.9,39.9,55,29.86,10.0,East,4.6,-,N/A,,Partly Cloudy,100,2013-08-20 06:54:00
1:54 AM,57.0,39.9,53,29.86,10.0,West,5.8,-,N/A,,Clear,270,2013-08-20 07:54:00
2:54 AM,60.1,37.0,42,29.86,10.0,SW,9.2,-,N/A,,Clear,230,2013-08-20 08:54:00
3:54 AM,60.1,35.1,39,29.86,10.0,WSW,9.2,-,N/A,,Clear,250,2013-08-20 09:54:00
4:54 AM,50.0,39.0,66,29.88,10.0,SSE,4.6,-,N/A,,Clear,150,2013-08-20 10:54:00
5:54 AM,48.0,39.0,71,29.90,10.0,ESE,3.5,-,N/A,,Clear,110,2013-08-20 11:54:00
6:54 AM,51.1,37.9,61,29.91,10.0,SSE,4.6,-,N/A,,Clear,150,2013-08-20 12:54:00
7:54 AM,55.9,44.1,64,29.92,10.0,SE,4.6,-,N/A,,Clear,140,2013-08-20 13:54:00
8:54 AM,68.0,44.1,42,29.94,10.0,Calm,Calm,-,N/A,,Clear,0,2013-08-20 14:54:00
9:54 AM,73.0,44.1,35,29.92,10.0,WNW,9.2,-,N/A,,Clear,300,2013-08-20 15:54:00
10:54 AM,73.9,43.0,33,29.93,10.0,WNW,4.6,-,N/A,,Clear,300,2013-08-20 16:54:00
11:54 AM,75.9,43.0,31,29.91,10.0,NW,4.6,-,N/A,,Clear,310,2013-08-20 17:54:00
12:54 PM,78.1,44.1,30,29.91,10.0,North,4.6,-,N/A,,Clear,360,2013-08-20 18:54:00
1:54 PM,82.0,44.1,26,29.88,10.0,WNW,9.2,-,N/A,,Clear,300,2013-08-20 19:54:00
2:54 PM,82.9,44.1,25,29.86,10.0,NNW,8.1,-,N/A,,Clear,330,2013-08-20 20:54:00
3:54 PM,84.0,44.1,25,29.85,10.0,Variable,5.8,-,N/A,,Clear,0,2013-08-20 21:54:00
4:54 PM,84.9,44.1,24,29.85,10.0,Variable,4.6,-,N/A,,Clear,0,2013-08-20 22:54:00
5:54 PM,84.0,44.1,25,29.86,10.0,Variable,3.5,-,N/A,,Clear,0,2013-08-20 23:54:00
6:54 PM,81.0,48.9,33,29.86,10.0,North,6.9,-,N/A,,Clear,10,2013-08-21 00:54:00
7:54 PM,75.9,48.9,38,29.87,8.0,North,4.6,-,N/A,,Clear,10,2013-08-21 01:54:00
8:54 PM,69.1,48.0,47,29.88,10.0,South,4.6,-,N/A,,Clear,180,2013-08-21 02:54:00
9:54 PM,64.9,48.0,54,29.90,10.0,South,10.4,-,N/A,,Clear,170,2013-08-21 03:54:00
10:54 PM,60.1,48.0,64,29.91,10.0,East,6.9,-,N/A,,Clear,100,2013-08-21 04:54:00
11:54 PM,60.1,46.0,60,29.93,10.0,South,5.8,-,N/A,,Clear,180,2013-08-21 05:54:00